• Em Portugal
  • Lista de países
  • Para 7 dias
  • Temperatura da água
  • Mapas de satélite
  • Mapa do tempo
  • Widgets de tempo
  • user-avatar
    Iniciar Sessão

    Previsão horária em Choybalsan

    Hoje, 20 Setembro, Quinta-feira

    Tempo Temperatura Precipitação Vento Pressão Humidade
    00:00 +13°C° 0.2 mm 5 m/s 685 mmHg 51%
    01:00 +13°C° 0.2 mm 6 m/s 684 mmHg 52%
    02:00 +13°C° 0.2 mm 6 m/s 683 mmHg 54%
    03:00 +13°C° 0.2 mm 6 m/s 683 mmHg 56%
    04:00 +13°C° 0.2 mm 6 m/s 682 mmHg 57%
    05:00 +12°C° 0.2 mm 7 m/s 682 mmHg 59%
    06:00 +10°C° 0 mm 7 m/s 682 mmHg 59%
    07:00 +9°C° 0 mm 8 m/s 682 mmHg 59%
    08:00 +6°C° 0 mm 9 m/s 681 mmHg 59%
    09:00 +7°C° 0 mm 10 m/s 681 mmHg 58%
    10:00 +7°C° 0 mm 10 m/s 681 mmHg 57%
    11:00 +8°C° 0 mm 10 m/s 681 mmHg 55%
    12:00 +7°C° 0 mm 11 m/s 681 mmHg 57%
    13:00 +7°C° 0 mm 11 m/s 681 mmHg 58%
    14:00 +7°C° 0 mm 11 m/s 681 mmHg 59%
    15:00 +6°C° 0.1 mm 11 m/s 681 mmHg 61%
    16:00 +4°C° 0.1 mm 11 m/s 681 mmHg 62%
    17:00 +4°C° 0.1 mm 11 m/s 681 mmHg 64%
    18:00 +3°C° 0.1 mm 10 m/s 681 mmHg 66%
    19:00 +3°C° 0.1 mm 10 m/s 680 mmHg 68%
    20:00 +3°C° 0.1 mm 9 m/s 680 mmHg 71%
    21:00 +2°C° 0.1 mm 8 m/s 680 mmHg 73%
    22:00 +3°C° 0.1 mm 7 m/s 680 mmHg 75%
    23:00 +3°C° 0.1 mm 6 m/s 680 mmHg 77%

    Amanhã, 21 Setembro, Sexta-feira

    Tempo Temperatura Precipitação Vento Pressão Humidade
    00:00 +3°C° 0.1 mm 6 m/s 680 mmHg 80%
    01:00 +3°C° 0.1 mm 5 m/s 680 mmHg 83%
    02:00 +4°C° 0.1 mm 4 m/s 680 mmHg 86%
    03:00 +3°C° 0.2 mm 5 m/s 680 mmHg 86%
    04:00 +3°C° 0.2 mm 5 m/s 680 mmHg 86%
    05:00 +3°C° 0.2 mm 6 m/s 681 mmHg 86%
    06:00 +2°C° 0.3 mm 7 m/s 681 mmHg 84%
    07:00 +1°C° 0.3 mm 8 m/s 682 mmHg 82%
    08:00 +1°C° 0.3 mm 9 m/s 683 mmHg 80%
    09:00 +2°C° 0.1 mm 9 m/s 684 mmHg 75%
    10:00 +3°C° 0.1 mm 9 m/s 685 mmHg 70%
    11:00 +5°C° 0.1 mm 9 m/s 686 mmHg 65%
    12:00 +6°C° 0.1 mm 9 m/s 686 mmHg 61%
    13:00 +7°C° 0.1 mm 8 m/s 687 mmHg 56%
    14:00 +9°C° 0.1 mm 8 m/s 687 mmHg 52%
    15:00 +9°C° 0 mm 6 m/s 688 mmHg 54%
    16:00 +9°C° 0 mm 5 m/s 688 mmHg 55%
    17:00 +10°C° 0 mm 3 m/s 689 mmHg 57%
    18:00 +8°C° 0.1 mm 4 m/s 689 mmHg 64%
    19:00 +7°C° 0.1 mm 5 m/s 689 mmHg 71%
    20:00 +5°C° 0.1 mm 6 m/s 689 mmHg 78%
    21:00 +5°C° 0.2 mm 6 m/s 689 mmHg 79%
    22:00 +4°C° 0.2 mm 6 m/s 689 mmHg 81%
    23:00 +4°C° 0.2 mm 7 m/s 689 mmHg 83%

    Depois de amanhã, 22 Setembro, Sábado

    Tempo Temperatura Precipitação Vento Pressão Humidade
    00:00 +4°C° 0.3 mm 7 m/s 689 mmHg 84%
    01:00 +4°C° 0.3 mm 8 m/s 689 mmHg 84%
    02:00 +4°C° 0.3 mm 8 m/s 689 mmHg 85%
    03:00 +4°C° 0.1 mm 8 m/s 690 mmHg 85%
    04:00 +4°C° 0.1 mm 8 m/s 690 mmHg 85%
    05:00 +4°C° 0.1 mm 8 m/s 690 mmHg 85%
    06:00 +4°C° 0.1 mm 8 m/s 690 mmHg 84%
    07:00 +4°C° 0.1 mm 8 m/s 691 mmHg 83%
    08:00 +4°C° 0.1 mm 8 m/s 691 mmHg 82%
    09:00 +3°C° 0.3 mm 9 m/s 691 mmHg 81%
    10:00 +5°C° 0.3 mm 10 m/s 691 mmHg 80%
    11:00 +5°C° 0.3 mm 10 m/s 691 mmHg 80%
    12:00 +5°C° 0.3 mm 10 m/s 692 mmHg 79%
    13:00 +5°C° 0.3 mm 10 m/s 692 mmHg 79%
    14:00 +5°C° 0.3 mm 10 m/s 692 mmHg 79%
    15:00 +6°C° 0.1 mm 10 m/s 692 mmHg 78%
    16:00 +6°C° 0.1 mm 10 m/s 693 mmHg 78%
    17:00 +6°C° 0.1 mm 9 m/s 694 mmHg 77%
    18:00 +6°C° 0 mm 8 m/s 694 mmHg 79%
    19:00 +5°C° 0 mm 7 m/s 695 mmHg 81%
    20:00 +4°C° 0 mm 6 m/s 695 mmHg 83%
    21:00 +4°C° 0 mm 6 m/s 695 mmHg 83%
    22:00 +4°C° 0 mm 6 m/s 696 mmHg 82%
    23:00 +5°C° 0 mm 5 m/s 696 mmHg 81%

    23 Setembro, Domingo

    Tempo Temperatura Precipitação Vento Pressão Humidade
    00:00 +5°C° 0 mm 5 m/s 696 mmHg 82%
    01:00 +3°C° 0 mm 5 m/s 697 mmHg 83%
    02:00 +3°C° 0 mm 5 m/s 697 mmHg 84%
    03:00 +3°C° 0 mm 5 m/s 697 mmHg 85%
    04:00 +2°C° 0 mm 5 m/s 697 mmHg 85%
    05:00 +2°C° 0 mm 5 m/s 697 mmHg 86%
    06:00 +2°C° 0 mm 5 m/s 698 mmHg 83%
    07:00 +3°C° 0 mm 6 m/s 698 mmHg 79%
    08:00 +3°C° 0 mm 6 m/s 698 mmHg 76%
    09:00 +5°C° 0 mm 6 m/s 699 mmHg 69%
    10:00 +6°C° 0 mm 7 m/s 699 mmHg 62%
    11:00 +9°C° 0 mm 7 m/s 699 mmHg 55%
    12:00 +9°C° 0 mm 7 m/s 698 mmHg 52%
    13:00 +10°C° 0 mm 6 m/s 698 mmHg 50%
    14:00 +11°C° 0 mm 6 m/s 698 mmHg 47%
    15:00 +10°C° 0 mm 5 m/s 698 mmHg 50%
    16:00 +11°C° 0 mm 4 m/s 698 mmHg 53%
    17:00 +11°C° 0 mm 4 m/s 698 mmHg 56%
    18:00 +9°C° 0 mm 3 m/s 698 mmHg 61%
    19:00 +7°C° 0 mm 2 m/s 698 mmHg 65%
    20:00 +6°C° 0 mm 2 m/s 698 mmHg 69%
    21:00 +6°C° 0 mm 2 m/s 698 mmHg 70%
    22:00 +5°C° 0 mm 2 m/s 699 mmHg 71%
    23:00 +5°C° 0 mm 2 m/s 699 mmHg 72%

    24 Setembro, Segunda-feira

    Tempo Temperatura Precipitação Vento Pressão Humidade
    00:00 +5°C° 0 mm 2 m/s 699 mmHg 73%
    01:00 +5°C° 0 mm 2 m/s 699 mmHg 74%
    02:00 +4°C° 0 mm 3 m/s 699 mmHg 75%
    03:00 +3°C° 0 mm 3 m/s 699 mmHg 77%
    04:00 +3°C° 0 mm 3 m/s 699 mmHg 78%
    05:00 +3°C° 0 mm 3 m/s 699 mmHg 80%
    06:00 +4°C° 0 mm 3 m/s 699 mmHg 77%
    07:00 +6°C° 0 mm 2 m/s 699 mmHg 74%
    08:00 +6°C° 0 mm 2 m/s 700 mmHg 72%
    09:00 +8°C° 0 mm 2 m/s 700 mmHg 66%
    10:00 +10°C° 0 mm 2 m/s 699 mmHg 59%
    11:00 +13°C° 0 mm 2 m/s 699 mmHg 53%
    12:00 +13°C° 0 mm 2 m/s 699 mmHg 50%
    13:00 +14°C° 0 mm 1 m/s 699 mmHg 47%
    14:00 +15°C° 0 mm 1 m/s 698 mmHg 44%
    15:00 +14°C° 0 mm 1 m/s 698 mmHg 47%
    16:00 +14°C° 0 mm 1 m/s 698 mmHg 51%
    17:00 +13°C° 0 mm 0 m/s 698 mmHg 54%
    18:00 +13°C° 0 mm 1 m/s 697 mmHg 56%
    19:00 +11°C° 0 mm 1 m/s 697 mmHg 58%
    20:00 +8°C° 0 mm 2 m/s 697 mmHg 60%
    21:00 +8°C° 0 mm 2 m/s 697 mmHg 61%
    22:00 +8°C° 0 mm 2 m/s 697 mmHg 62%
    23:00 +7°C° 0 mm 3 m/s 697 mmHg 64%

    25 Setembro, Terça-feira

    Tempo Temperatura Precipitação Vento Pressão Humidade
    00:00 +7°C° 0 mm 3 m/s 696 mmHg 65%
    01:00 +7°C° 0 mm 3 m/s 696 mmHg 67%
    02:00 +5°C° 0 mm 3 m/s 696 mmHg 69%
    03:00 +5°C° 0 mm 3 m/s 696 mmHg 69%
    04:00 +5°C° 0 mm 3 m/s 696 mmHg 69%
    05:00 +5°C° 0 mm 3 m/s 696 mmHg 69%
    06:00 +5°C° 0 mm 3 m/s 695 mmHg 67%
    07:00 +7°C° 0 mm 3 m/s 695 mmHg 66%
    08:00 +7°C° 0 mm 4 m/s 695 mmHg 64%
    09:00 +10°C° 0 mm 4 m/s 695 mmHg 58%
    10:00 +12°C° 0 mm 5 m/s 695 mmHg 53%
    11:00 +14°C° 0 mm 5 m/s 694 mmHg 47%
    12:00 +15°C° 0 mm 5 m/s 694 mmHg 45%
    13:00 +16°C° 0 mm 6 m/s 693 mmHg 43%
    14:00 +16°C° 0 mm 6 m/s 693 mmHg 41%
    15:00 +16°C° 0 mm 5 m/s 692 mmHg 45%
    16:00 +15°C° 0 mm 4 m/s 692 mmHg 49%
    17:00 +15°C° 0 mm 4 m/s 692 mmHg 53%
    18:00 +14°C° 0 mm 4 m/s 691 mmHg 54%
    19:00 +13°C° 0 mm 4 m/s 691 mmHg 54%
    20:00 +12°C° 0 mm 4 m/s 691 mmHg 55%
    21:00 +12°C° 0 mm 5 m/s 690 mmHg 54%
    22:00 +10°C° 0 mm 5 m/s 690 mmHg 53%
    23:00 +10°C° 0 mm 5 m/s 690 mmHg 51%
    Mostrar mais